Aktuell
News
Messwerte
Diagramme
Archiv
Wettervorhersage
Regen
Wettergefahren

Astro & Geo
Health
Pegel
Gästebuch
Kontakt
Impressum
Datenschutz
App

Leichter Regen bei 4.7 °C – Luftdruck: 999.6 hPa – Wind: OSO 1.4 km/h
Messwerte von 11:31 Uhr; Warnsymbol: Datenbasis DWD
Übersicht
Heute
Gestern
Vor 1 Jahr
Info
Vor 1 Jahr
 
Messwerte von Dienstag, 28.01.2020
Symbol
Zeitpunkt
Wetter-
zustand
Zeitpunkt
Temperatur
Zeitpunkt
Luftfeuchte
Taupunkt
Zeitpunkt
Luftdruck
Zeitpunkt
Wind
Zeitpunkt
Windböen
Max 15 Min.
Wind-
richtung
Zeitpunkt
Regen
Summe 1 h
Regenrate
Max 15 Min.
UV-Index
Max 15 Min.
Pegel Köln
Zeitpunkt
Warnlage
Zeitpunkt
00:15 Leichter Regen2 7.4 °C 82 %
4.5 °C
996.0 hPa 7.9 km/h
2 Bft
19.4 km/h
3 Bft
SSO -
0.0 mm/h
0.0 194 cm
00:30 Bedeckt2 7.7 °C 80 %
4.5 °C
995.6 hPa 9.7 km/h
2 Bft
27.4 km/h
4 Bft
SSO -
0.0 mm/h
0.0 194 cm
00:45 Bedeckt2 7.8 °C 80 %
4.6 °C
995.6 hPa 10.1 km/h
2 Bft
24.1 km/h
4 Bft
S -
0.0 mm/h
0.0 194 cm
01:00 Leichter Regen1 7.5 °C 83 %
4.8 °C
995.7 hPa 7.9 km/h
2 Bft
22.7 km/h
4 Bft
SSW 0.50 mm
0.0 mm/h
0.0 194 cm
01:15 Leichter Regen1 7.4 °C 83 %
4.7 °C
995.8 hPa 11.2 km/h
2 Bft
24.1 km/h
4 Bft
SW -
3.4 mm/h
0.0 194 cm
01:30 Leichter Regen1 7.2 °C 84 %
4.7 °C
995.6 hPa 9.7 km/h
2 Bft
22.7 km/h
4 Bft
S -
2.0 mm/h
0.0 194 cm
01:45 Bedeckt2 7.0 °C 86 %
4.8 °C
995.5 hPa 6.5 km/h
2 Bft
16.2 km/h
3 Bft
SSO -
0.0 mm/h
0.0 193 cm
02:00 Bedeckt2 7.0 °C 86 %
4.8 °C
995.3 hPa 4.7 km/h
1 Bft
13.0 km/h
3 Bft
S 0.78 mm
0.0 mm/h
0.0 193 cm
02:15 Bedeckt2 7.0 °C 87 %
5.0 °C
995.2 hPa 3.2 km/h
1 Bft
9.7 km/h
2 Bft
SO -
0.0 mm/h
0.0 194 cm
02:30 Stark bewölkt3 7.0 °C 87 %
5.0 °C
995.2 hPa 3.2 km/h
1 Bft
25.9 km/h
4 Bft
SSO -
0.0 mm/h
0.0 193 cm
02:45 Leichter Regen2 7.3 °C 83 %
4.6 °C
995.1 hPa 6.5 km/h
2 Bft
20.9 km/h
4 Bft
S -
0.0 mm/h
0.0 194 cm
03:00 Leichter Regen1 7.4 °C 81 %
4.4 °C
995.1 hPa 7.9 km/h
2 Bft
19.4 km/h
3 Bft
SSW 0.30 mm
0.0 mm/h
0.0 194 cm
03:15 Leichter Regen1 6.9 °C 84 %
4.4 °C
995.5 hPa 16.2 km/h
3 Bft
33.8 km/h
5 Bft
SW -
7.2 mm/h
0.0 194 cm
03:30 Leichter Regen1 5.8 °C 86 %
3.6 °C
995.6 hPa 17.6 km/h
3 Bft
43.6 km/h
6 Bft
SSW -
4.8 mm/h
0.0 194 cm
03:45 Leichter Regen1 5.7 °C 86 %
3.5 °C
995.5 hPa 13.0 km/h
3 Bft
28.8 km/h
5 Bft
SW -
3.2 mm/h
0.0 193 cm
04:00 Leichter Regen2 5.7 °C 85 %
3.4 °C
995.1 hPa 9.7 km/h
2 Bft
24.1 km/h
4 Bft
SSW 2.36 mm
1.4 mm/h
0.0 194 cm
04:15 Bedeckt2 5.7 °C 85 %
3.4 °C
995.0 hPa 7.9 km/h
2 Bft
19.4 km/h
3 Bft
SSW -
0.0 mm/h
0.0 193 cm
04:30 Bedeckt2 5.6 °C 85 %
3.3 °C
994.7 hPa 6.5 km/h
2 Bft
22.7 km/h
4 Bft
SSW -
0.0 mm/h
0.0 194 cm
04:45 Bedeckt2 5.7 °C 84 %
3.2 °C
994.5 hPa 6.5 km/h
2 Bft
16.2 km/h
3 Bft
SW -
0.0 mm/h
0.0 194 cm
05:00 Bedeckt2 5.7 °C 85 %
3.4 °C
994.2 hPa 3.6 km/h
1 Bft
11.2 km/h
2 Bft
SSO 0.00 mm
0.0 mm/h
0.0 194 cm
05:15 Bedeckt2 5.5 °C 85 %
3.2 °C
993.9 hPa 3.2 km/h
1 Bft
7.9 km/h
2 Bft
SO -
0.0 mm/h
0.0 194 cm
05:30 Bedeckt2 5.3 °C 87 %
3.3 °C
993.7 hPa 4.7 km/h
1 Bft
11.2 km/h
2 Bft
OSO -
0.0 mm/h
0.0 194 cm
05:45 Bedeckt2 5.3 °C 87 %
3.3 °C
993.2 hPa 6.5 km/h
2 Bft
16.2 km/h
3 Bft
OSO -
0.0 mm/h
0.0 194 cm
06:00 Bedeckt2 5.4 °C 87 %
3.4 °C
993.0 hPa 4.7 km/h
1 Bft
17.6 km/h
3 Bft
SO 0.00 mm
0.0 mm/h
0.0 193 cm
06:15 Bedeckt2 5.7 °C 86 %
3.5 °C
992.7 hPa 4.7 km/h
1 Bft
16.2 km/h
3 Bft
SSO -
0.0 mm/h
0.0 194 cm
06:30 Bedeckt2 5.8 °C 85 %
3.5 °C
992.5 hPa 4.7 km/h
1 Bft
13.0 km/h
3 Bft
SSO -
0.0 mm/h
0.0 194 cm
06:45 Bedeckt2 5.9 °C 85 %
3.6 °C
992.3 hPa 6.5 km/h
2 Bft
14.4 km/h
3 Bft
S -
0.0 mm/h
0.0 194 cm
07:00 Stark bewölkt3 6.3 °C 83 %
3.6 °C
992.0 hPa 6.5 km/h
2 Bft
14.4 km/h
3 Bft
SSO 0.00 mm
0.0 mm/h
0.0 193 cm
07:15 Stark bewölkt3 6.7 °C 81 %
3.7 °C
991.8 hPa 7.5 km/h
2 Bft
17.6 km/h
3 Bft
S -
0.0 mm/h
0.0 194 cm
07:30 Bedeckt2 6.7 °C 80 %
3.5 °C
991.5 hPa 7.6 km/h
2 Bft
19.4 km/h
3 Bft
S -
0.0 mm/h
0.0 194 cm
07:45 Leichter Regen1 6.8 °C 79 %
3.4 °C
991.4 hPa 9.7 km/h
2 Bft
22.7 km/h
4 Bft
SW -
0.0 mm/h
0.0 194 cm
08:00 Leichter Regen2 6.8 °C 77 %
3.1 °C
991.3 hPa 11.2 km/h
2 Bft
25.9 km/h
4 Bft
SSW 0.00 mm
0.0 mm/h
0.0 194 cm
08:15 Stark bewölkt3 6.6 °C 79 %
3.2 °C
991.3 hPa 4.7 km/h
1 Bft
16.2 km/h
3 Bft
NNO -
0.0 mm/h
0.0 194 cm
08:30 Bedeckt2 5.8 °C 81 %
2.8 °C
991.0 hPa 6.5 km/h
2 Bft
14.4 km/h
3 Bft
SSW -
0.0 mm/h
0.0 194 cm
08:45 Leichter Regen1 5.0 °C 83 %
2.4 °C
992.1 hPa 20.5 km/h
4 Bft
53.3 km/h
7 Bft
SSW -
6.0 mm/h
0.0 194 cm
09:00 Leichter Regen1 5.1 °C 82 %
2.3 °C
991.7 hPa 16.2 km/h
3 Bft
38.5 km/h
6 Bft
NW 1.28 mm
4.6 mm/h
0.0 194 cm
09:15 Leichter Regen2 4.9 °C 82 %
2.1 °C
991.9 hPa 11.2 km/h
2 Bft
22.7 km/h
4 Bft
SW -
1.4 mm/h
0.0 194 cm
09:30 Bedeckt2 4.9 °C 82 %
2.1 °C
992.1 hPa 14.4 km/h
3 Bft
25.9 km/h
4 Bft
SSW -
0.0 mm/h
0.0 194 cm
09:45 Bedeckt2 4.9 °C 82 %
2.1 °C
992.4 hPa 11.2 km/h
2 Bft
22.7 km/h
4 Bft
WSW -
0.0 mm/h
0.0 194 cm
10:00 Stark bewölkt3 5.0 °C 81 %
2.0 °C
992.8 hPa 9.7 km/h
2 Bft
32.0 km/h
5 Bft
SSW 0.00 mm
0.0 mm/h
0.0 194 cm
10:15 Leichter Regen2 4.7 °C 83 %
2.1 °C
992.9 hPa 16.2 km/h
3 Bft
33.8 km/h
5 Bft
S -
0.0 mm/h
0.0 194 cm
10:30 Wolkig3 4.9 °C 80 %
1.7 °C
993.1 hPa 11.7 km/h
3 Bft
24.1 km/h
4 Bft
W -
0.0 mm/h
0.0 194 cm
10:45 Stark bewölkt3 5.0 °C 78 %
1.5 °C
993.6 hPa 11.2 km/h
2 Bft
32.0 km/h
5 Bft
WSW -
0.0 mm/h
0.0 194 cm
11:00 Wolkig3 5.1 °C 78 %
1.6 °C
993.8 hPa 14.4 km/h
3 Bft
30.6 km/h
5 Bft
SSW 0.00 mm
0.0 mm/h
0.0 195 cm
11:15 Stark bewölkt3 5.1 °C 77 %
1.4 °C
994.1 hPa 14.4 km/h
3 Bft
27.4 km/h
4 Bft
W -
0.0 mm/h
0.0 195 cm
11:30 Bedeckt2 5.2 °C 75 %
1.1 °C
994.3 hPa 16.2 km/h
3 Bft
33.8 km/h
5 Bft
SSW -
0.0 mm/h
0.0 195 cm
11:45 Bedeckt2 5.3 °C 74 %
1.0 °C
994.4 hPa 16.2 km/h
3 Bft
33.8 km/h
5 Bft
W -
0.0 mm/h
0.0 195 cm
12:00 Bedeckt2 5.5 °C 73 %
1.1 °C
995.1 hPa 17.6 km/h
3 Bft
37.1 km/h
5 Bft
NW 0.00 mm
0.0 mm/h
0.0 195 cm
12:15 Bedeckt2 5.5 °C 73 %
1.1 °C
995.0 hPa 17.6 km/h
3 Bft
41.8 km/h
6 Bft
WNW -
0.0 mm/h
0.0 195 cm
12:30 Bedeckt2 5.6 °C 72 %
1.0 °C
995.6 hPa 18.2 km/h
3 Bft
45.0 km/h
6 Bft
S -
0.0 mm/h
0.0 195 cm
12:45 Stark bewölkt3 5.6 °C 69 %
0.4 °C
995.5 hPa 22.2 km/h
4 Bft
40.3 km/h
6 Bft
NW -
0.0 mm/h
0.0 196 cm
13:00 Stark bewölkt3 5.8 °C 69 %
0.6 °C
995.4 hPa 19.8 km/h
4 Bft
40.3 km/h
6 Bft
SW 0.00 mm
0.0 mm/h
0.0 197 cm
13:15 Stark bewölkt3 5.8 °C 66 %
-0.0 °C
995.9 hPa 19.4 km/h
3 Bft
38.5 km/h
6 Bft
S -
0.0 mm/h
0.8 197 cm
13:30 Wolkig3 5.8 °C 63 %
-0.7 °C
995.7 hPa 20.9 km/h
4 Bft
41.8 km/h
6 Bft
SW -
0.0 mm/h
1.1 198 cm
13:45 Leichter Regen1 5.8 °C 63 %
-0.7 °C
996.1 hPa 21.3 km/h
4 Bft
46.8 km/h
6 Bft
SSO -
0.0 mm/h
1.0 198 cm
14:00 Wolkig3 5.8 °C 63 %
-0.7 °C
996.4 hPa 23.8 km/h
4 Bft
48.2 km/h
6 Bft
W 0.25 mm
0.0 mm/h
0.9 198 cm
14:15 Wolkig3 5.7 °C 65 %
-0.4 °C
996.4 hPa 20.9 km/h
4 Bft
43.6 km/h
6 Bft
W -
0.0 mm/h
0.9 198 cm
14:30 Wolkig3 6.1 °C 64 %
-0.2 °C
996.8 hPa 20.5 km/h
4 Bft
48.2 km/h
6 Bft
S -
0.0 mm/h
0.9 198 cm
14:45 Wolkig3 5.8 °C 62 %
-0.9 °C
996.7 hPa 24.1 km/h
4 Bft
43.6 km/h
6 Bft
WNW -
0.0 mm/h
0.8 198 cm
15:00 Wolkig3 6.1 °C 62 %
-0.6 °C
996.9 hPa 19.4 km/h
3 Bft
50.0 km/h
7 Bft
SW 0.00 mm
0.0 mm/h
0.8 198 cm
15:15 Bedeckt2 6.1 °C 62 %
-0.6 °C
997.4 hPa 22.7 km/h
4 Bft
43.6 km/h
6 Bft
S -
0.0 mm/h
0.6 199 cm
15:30 Bedeckt2 6.4 °C 60 %
-0.8 °C
997.4 hPa 18.1 km/h
3 Bft
38.5 km/h
6 Bft
SW -
0.0 mm/h
0.0 199 cm
15:45 Bedeckt2 6.2 °C 61 %
-0.7 °C
997.6 hPa 20.9 km/h
4 Bft
45.0 km/h
6 Bft
WSW -
0.0 mm/h
0.0 199 cm
16:00 Stark bewölkt3 5.8 °C 63 %
-0.7 °C
997.9 hPa 17.6 km/h
3 Bft
40.3 km/h
6 Bft
NW 0.00 mm
0.0 mm/h
0.0 200 cm
16:15 Wolkig3 5.5 °C 64 %
-0.8 °C
998.2 hPa 18.9 km/h
3 Bft
37.1 km/h
5 Bft
WNW -
0.0 mm/h
0.0 201 cm
16:30 Wolkig3 5.3 °C 65 %
-0.7 °C
998.3 hPa 17.6 km/h
3 Bft
40.3 km/h
6 Bft
WNW -
0.0 mm/h
0.0 201 cm
16:45 Leichter Regen2 5.4 °C 65 %
-0.6 °C
998.6 hPa 14.4 km/h
3 Bft
27.4 km/h
4 Bft
WSW -
0.0 mm/h
0.0 201 cm
17:00 Leichter Regen2 5.2 °C 68 %
-0.2 °C
998.7 hPa 11.2 km/h
2 Bft
24.1 km/h
4 Bft
WNW 0.00 mm
0.0 mm/h
0.0 202 cm
17:15 Leichter Regen2 5.5 °C 66 %
-0.3 °C
998.8 hPa 16.2 km/h
3 Bft
30.6 km/h
5 Bft
SSW -
0.0 mm/h
0.0 202 cm
17:30 Wolkig3 5.3 °C 66 %
-0.5 °C
999.1 hPa 16.6 km/h
3 Bft
30.6 km/h
5 Bft
W -
0.0 mm/h
0.0 202 cm
17:45 Wolkig3 5.2 °C 67 %
-0.4 °C
999.4 hPa 14.4 km/h
3 Bft
37.1 km/h
5 Bft
SW -
0.0 mm/h
0.0 202 cm
18:00 Wolkig3 5.0 °C 69 %
-0.2 °C
999.6 hPa 14.4 km/h
3 Bft
32.0 km/h
5 Bft
S 0.00 mm
0.0 mm/h
0.0 203 cm
18:15 Wolkig3 5.0 °C 69 %
-0.2 °C
999.5 hPa 13.0 km/h
3 Bft
28.8 km/h
5 Bft
SSW -
0.0 mm/h
0.0 203 cm
18:30 Leicht bewölkt3 5.0 °C 69 %
-0.2 °C
999.8 hPa 11.2 km/h
2 Bft
25.9 km/h
4 Bft
SSW -
0.0 mm/h
0.0 203 cm
18:45 Leicht bewölkt3 5.1 °C 68 %
-0.3 °C
999.8 hPa 14.4 km/h
3 Bft
30.6 km/h
5 Bft
SSW -
0.0 mm/h
0.0 204 cm
19:00 Leicht bewölkt3 4.9 °C 68 %
-0.5 °C
1000.1 hPa 13.0 km/h
3 Bft
27.4 km/h
4 Bft
S 0.00 mm
0.0 mm/h
0.0 205 cm
19:15 Leicht bewölkt3 4.7 °C 69 %
-0.5 °C
1000.2 hPa 9.7 km/h
2 Bft
22.7 km/h
4 Bft
SSW -
0.0 mm/h
0.0 206 cm
19:30 Leicht bewölkt3 4.6 °C 70 %
-0.4 °C
1000.3 hPa 13.0 km/h
3 Bft
24.1 km/h
4 Bft
W -
0.0 mm/h
0.0 206 cm
19:45 Wolkig3 4.6 °C 72 %
-0.0 °C
1000.2 hPa 14.4 km/h
3 Bft
30.6 km/h
5 Bft
SSW -
0.0 mm/h
0.0 206 cm
20:00 Wolkig3 4.5 °C 73 %
0.1 °C
1000.3 hPa 11.2 km/h
2 Bft
27.4 km/h
4 Bft
SW 0.00 mm
0.0 mm/h
0.0 206 cm
20:15 Leicht bewölkt3 4.6 °C 73 %
0.2 °C
1000.3 hPa 11.2 km/h
2 Bft
20.9 km/h
4 Bft
SW -
0.0 mm/h
0.0 207 cm
20:30 Wolkig3 4.7 °C 73 %
0.3 °C
1000.3 hPa 11.6 km/h
3 Bft
24.1 km/h
4 Bft
SSW -
0.0 mm/h
0.0 207 cm
20:45 Leicht bewölkt3 4.6 °C 73 %
0.2 °C
1000.4 hPa 8.4 km/h
2 Bft
20.9 km/h
4 Bft
NO -
0.0 mm/h
0.0 208 cm
21:00 Stark bewölkt3 4.7 °C 72 %
0.1 °C
1000.5 hPa 9.7 km/h
2 Bft
24.1 km/h
4 Bft
WSW 0.00 mm
0.0 mm/h
0.0 208 cm
21:15 Wolkig3 4.8 °C 71 %
-0.0 °C
1000.5 hPa 9.7 km/h
2 Bft
20.9 km/h
4 Bft
SW -
0.0 mm/h
0.0 209 cm
21:30 Bedeckt2 4.7 °C 72 %
0.1 °C
1000.6 hPa 9.7 km/h
2 Bft
25.9 km/h
4 Bft
S -
0.0 mm/h
0.0 210 cm
21:45 Stark bewölkt3 4.7 °C 72 %
0.1 °C
1000.5 hPa 9.7 km/h
2 Bft
20.9 km/h
4 Bft
SSW -
0.0 mm/h
0.0 210 cm
22:00 Stark bewölkt3 4.5 °C 72 %
-0.1 °C
1000.4 hPa 6.9 km/h
2 Bft
17.6 km/h
3 Bft
SSW 0.00 mm
0.0 mm/h
0.0 210 cm
22:15 Bedeckt2 4.4 °C 72 %
-0.2 °C
1000.3 hPa 6.5 km/h
2 Bft
11.2 km/h
2 Bft
S -
0.0 mm/h
0.0 211 cm
22:30 Stark bewölkt3 4.4 °C 72 %
-0.2 °C
1000.1 hPa 6.5 km/h
2 Bft
13.0 km/h
3 Bft
SSW -
0.0 mm/h
0.0 211 cm
22:45 Wolkig3 4.5 °C 72 %
-0.1 °C
1000.1 hPa 4.7 km/h
1 Bft
9.7 km/h
2 Bft
S -
0.0 mm/h
0.0 212 cm
23:00 Wolkig3 4.5 °C 72 %
-0.1 °C
1000.2 hPa 6.5 km/h
2 Bft
13.0 km/h
3 Bft
S 0.00 mm
0.0 mm/h
0.0 212 cm
23:15 Stark bewölkt3 4.7 °C 72 %
0.1 °C
1000.2 hPa 9.7 km/h
2 Bft
17.6 km/h
3 Bft
SSW -
0.0 mm/h
0.0 212 cm
23:30 Stark bewölkt3 4.7 °C 72 %
0.1 °C
1000.2 hPa 7.9 km/h
2 Bft
17.6 km/h
3 Bft
W -
0.0 mm/h
0.0 213 cm
23:45 Stark bewölkt3 4.8 °C 75 %
0.8 °C
1000.3 hPa 11.2 km/h
2 Bft
22.7 km/h
4 Bft
WSW -
0.0 mm/h
0.0 214 cm
00:00 Stark bewölkt3 3.9 °C 80 %
0.8 °C
1000.5 hPa 13.0 km/h
3 Bft
27.4 km/h
4 Bft
WNW 0.00 mm
0.0 mm/h
0.0 214 cm
Datenbasis Wetterzustand: ¹ Wetterstation Köln-Nippes (Stellwerk), ² powered by , ³ powered by OpenWeatherMap, CC BY-SA 4.0; Warnlage: DWD, Pegelonline, LANUV; Pegel Köln: Pegelonline
 
Extrem- und Durchschnittswerte
  Temperatur Luftfeuchte Luftdruck Wind Windböen Wind-
richtung
Regen UV-Index Pegel Köln KKT
Min

Max

Ø
3.9 °C
23:58 Uhr
7.8 °C
00:36 Uhr
5.6 °C
59.0 %
15:31 Uhr
87.0 %
02:06 Uhr
75.4 %
991.0 hPa
08:29 Uhr
1000.7 hPa
21:12 Uhr
996.2 hPa
 
 
24.1 km/h
08:48 Uhr
12.3 km/h
 
 
53.3 km/h
08:41 Uhr
 
 
 
SSW
 
 
 
 
5.47 mm
 
 
 
 
1.1
13:25 Uhr
 
193 cm
01:45 Uhr
214 cm
23:45 Uhr
 
KT
NT
  Taupunkt   Wind Windböen   Regenrate Ozon Sonne Mond
Min

Max

Ø
-1.1 °C
15:32 Uhr
5.1 °C
02:07 Uhr
1.5 °C
   
 
4 Bft
08:48 Uhr
12.3 km/h
 
 
7 Bft
08:41 Uhr
 
   
 
7.2 mm/h
03:07 Uhr
 
 
Chorweiler
78 μg/m³
14:00 Uhr
 
▲ 08:15 Uhr
▼ 17:15 Uhr
▲ 10:11 Uhr
▼ 21:02 Uhr
KKT = Klimatologischer Kenntag: ET = Eistag, FT = Frosttag, KT = Kalter Tag, ST = Sommertag, HT = Hitzetag, TN = Tropennacht, NT = Niederschlagstag, SH = Schneehöhe (Max Tag); Datenbasis Ozon: LANUV, Land NRW, dl-de/by-2-0
Für dieses Datum steht leider (noch) kein Tagesrückblick zur Verfügung.
 
Tagesgrafik
Grafik zum Vergrößern anklicken
 
Detaillierte Warnlage
STURMBÖEN
28.01.20, 06:00 Uhr bis 16:00 Uhr
Es treten Sturmböen mit Geschwindigkeiten zwischen 65 km/h (18m/s, 35kn, Bft 8) und 80 km/h (22m/s, 44kn, Bft 9) anfangs aus südwestlicher, später aus westlicher Richtung auf. In Schauernähe muss mit schweren Sturmböen bis 100 km/h (28m/s, 55kn, Bft 10) gerechnet werden. ACHTUNG! Hinweis auf mögliche Gefahren: Es können zum Beispiel einzelne Äste herabstürzen. Achten Sie besonders auf herabfallende Gegenstände.
STARKES GEWITTER
28.01.20, 07:04 Uhr bis 08:00 Uhr
Von Westen ziehen Gewitter auf. Dabei gibt es Sturmböen mit Geschwindigkeiten bis 85 km/h (24m/s, 47kn, Bft 9). ACHTUNG! Hinweis auf mögliche Gefahren: Örtlich kann es Blitzschlag geben. Bei Blitzschlag besteht Lebensgefahr! Vereinzelt können beispielsweise Bäume entwurzelt und Dächer beschädigt werden. Achten Sie besonders auf herabstürzende Äste, Dachziegel oder Gegenstände.
STURMBÖEN
28.01.20, 07:39 Uhr bis 17:00 Uhr
Es treten Sturmböen mit Geschwindigkeiten zwischen 60 km/h (17m/s, 33kn, Bft 7) und 80 km/h (22m/s, 44kn, Bft 9) anfangs aus südwestlicher, später aus westlicher Richtung auf. In Schauernähe muss mit schweren Sturmböen um 100 km/h (28m/s, 55kn, Bft 10) gerechnet werden. ACHTUNG! Hinweis auf mögliche Gefahren: Es können zum Beispiel einzelne Äste herabstürzen. Achten Sie besonders auf herabfallende Gegenstände.













28.01.20

28.01.20

28.01.20

28.01.20

28.01.20

28.01.20

28.01.20
Datenbasis: DWD, Pegelonline, LANUV


Zurück zur Eingabemaske